Weather History for LHBP - September, 2012

Change the Weather History Date:

Thursday, September 20, 2012

  Actual Average Record
Temperature  
Mean Temperature 50 °F -  
Max Temperature 59 °F 62 °F 84 °F (2003)
Min Temperature 42 °F 43 °F 39 °F (2007)
Degree Days  
Heating Degree Days 14    
Moisture  
Dew Point 46 °F    
Average Humidity 80    
Maximum Humidity 100    
Minimum Humidity 55    
Precipitation  
Precipitation 0.00 in - - ()
Sea Level Pressure  
Sea Level Pressure 30.07 in    
Wind  
Wind Speed 12 mph ()    
Max Wind Speed 20 mph    
Max Gust Speed 31 mph    
Visibility 6.0 miles    
Events Rain    
Averages and records for this station are not official NWS values.
T = Trace of Precipitation, MM = Missing Value Source: Averaged Metar Reports

Daily Weather History Graph

Daily Weather History Graph

Search for Another Location

Airport or City:

Trip Planner

Search our weather history database for the weather conditions in past years. The results will help you decide how hot, cold, wet, or windy it might be!

Date:

Astronomy

Sep. 20, 2012 Rise Set
Actual Time 6:27 AM CEST 6:44 PM CEST
Civil Twilight 5:56 AM CEST 7:15 PM CEST
Nautical Twilight 5:20 AM CEST 7:51 PM CEST
Astronomical Twilight 4:42 AM CEST 8:28 PM CEST
Moon 11:49 AM CEST (9/20) 9:05 PM CEST (9/20)
Length of Visible Light 13h 18m
Length of Day
12h 17m
Waxing Crescent, 24% of the Moon is Illuminated
Sep 20
Waxing Crescent
Sep 22
First Quarter
Sep 30
Full
Oct 8
Last Quarter
Oct 15
New

Hourly Weather History & Observations

Time (CEST) Temp. Windchill Dew Point Humidity Pressure Visibility Wind Dir Wind Speed Gust Speed Precip Events Conditions
12:00 AM 57.2 °F - 48.2 °F 72% 29.92 in 6.2 mi NW 17.3 mph - N/A   Mostly Cloudy
12:30 AM 57.2 °F - 46.4 °F 67% 29.92 in 6.2 mi NW 17.3 mph - N/A   Mostly Cloudy
1:00 AM 57.2 °F - 46.4 °F 67% 29.95 in 6.2 mi NW 16.1 mph - N/A   Mostly Cloudy
1:30 AM 55.4 °F - 46.4 °F 72% 29.95 in 6.2 mi NNW 19.6 mph 31.1 mph N/A Rain Light Rain Showers
2:00 AM 53.6 °F - 48.2 °F 82% 29.98 in 6.2 mi NNW 18.4 mph - N/A Rain Light Rain
2:30 AM 51.8 °F - 48.2 °F 88% 29.98 in 6.2 mi NNW 19.6 mph - N/A Rain Light Rain
3:00 AM 51.8 °F - 48.2 °F 88% 29.98 in 6.2 mi NW 17.3 mph - N/A Rain Light Rain
3:30 AM 51.8 °F - 48.2 °F 88% 29.98 in 6.2 mi NNW 19.6 mph - N/A Rain Light Rain
4:00 AM 51.8 °F - 48.2 °F 88% 29.98 in 5.0 mi NW 13.8 mph - N/A Rain Light Rain
4:30 AM 51.8 °F - 48.2 °F 88% 29.98 in 5.0 mi NW 11.5 mph - N/A Rain Light Rain
5:00 AM 50.0 °F - 48.2 °F 94% 29.98 in 5.0 mi NW 12.7 mph - N/A Rain Light Rain
5:30 AM 50.0 °F - 48.2 °F 94% 29.98 in 5.0 mi NW 12.7 mph - N/A Rain Light Rain
6:00 AM 50.0 °F - 48.2 °F 94% 30.01 in 6.2 mi NW 15.0 mph - N/A Rain Light Rain
6:30 AM 50.0 °F - 48.2 °F 94% 30.01 in 6.2 mi NW 11.5 mph - N/A Rain Light Rain
7:00 AM 50.0 °F - 48.2 °F 94% 30.01 in 6.2 mi NW 11.5 mph - N/A Rain Light Rain
7:30 AM 50.0 °F - 48.2 °F 94% 30.01 in 6.2 mi NW 13.8 mph - N/A Rain Light Rain
8:00 AM 50.0 °F - 48.2 °F 94% 30.04 in 6.2 mi NW 13.8 mph - N/A Rain Light Rain
8:30 AM 50.0 °F - 50.0 °F 100% 30.04 in 6.2 mi NNW 13.8 mph - N/A Rain Light Rain
9:00 AM 50.0 °F - 48.2 °F 94% 30.04 in 6.2 mi NNW 12.7 mph - N/A Rain Light Rain
9:30 AM 50.0 °F - 48.2 °F 94% 30.04 in 6.2 mi NNW 10.4 mph - N/A Rain Light Rain
10:00 AM 50.0 °F - 48.2 °F 94% 30.06 in 6.2 mi NNW 13.8 mph - N/A Rain Light Rain
10:30 AM 51.8 °F - 48.2 °F 88% 30.06 in 6.2 mi NNW 11.5 mph - N/A Rain Light Rain
11:00 AM 51.8 °F - 48.2 °F 88% 30.06 in 6.2 mi NNW 9.2 mph - N/A Rain Light Rain
11:30 AM 51.8 °F - 46.4 °F 82% 30.06 in 6.2 mi NNW 10.4 mph - N/A Rain Light Rain
12:00 PM 53.6 °F - 46.4 °F 77% 30.09 in 6.2 mi NW 11.5 mph - N/A Rain Light Rain
12:30 PM 53.6 °F - 46.4 °F 77% 30.09 in 6.2 mi NNW 12.7 mph - N/A   Mostly Cloudy
1:00 PM 55.4 °F - 44.6 °F 67% 30.09 in 6.2 mi NNW 13.8 mph - N/A   Mostly Cloudy
1:30 PM 57.2 °F - 44.6 °F 63% 30.09 in 6.2 mi NNW 11.5 mph - N/A   Mostly Cloudy
2:00 PM 57.2 °F - 42.8 °F 59% 30.09 in 6.2 mi NNW 13.8 mph - N/A   Mostly Cloudy
2:30 PM 57.2 °F - 42.8 °F 59% 30.12 in 6.2 mi NNW 12.7 mph - N/A   Mostly Cloudy
3:00 PM 57.2 °F - 42.8 °F 59% 30.12 in 6.2 mi North 13.8 mph - N/A   Mostly Cloudy
3:30 PM 59.0 °F - 42.8 °F 55% 30.12 in - North 10.4 mph - N/A   Clear
4:00 PM 57.2 °F - 42.8 °F 59% 30.12 in - North 11.5 mph - N/A   Clear
4:30 PM 55.4 °F - 42.8 °F 63% 30.15 in - NNE 9.2 mph - N/A   Clear
5:30 PM 55.4 °F - 41.0 °F 58% 30.15 in - NNE 5.8 mph - N/A   Clear
6:00 PM 55.4 °F - 42.8 °F 63% 30.15 in - ENE 5.8 mph - N/A   Clear
6:30 PM 55.4 °F - 42.8 °F 63% 30.15 in - ENE 4.6 mph - N/A   Clear
7:00 PM 53.6 °F - 44.6 °F 72% 30.18 in - Variable 1.2 mph - N/A   Clear
7:30 PM 53.6 °F - 44.6 °F 72% 30.18 in - Variable 2.3 mph - N/A   Clear
8:00 PM 51.8 °F - 44.6 °F 76% 30.18 in - Calm Calm - N/A   Clear
8:30 PM 48.2 °F - 42.8 °F 82% 30.18 in - Variable 3.5 mph - N/A   Clear
9:00 PM 50.0 °F - 46.4 °F 87% 30.18 in - Variable 1.2 mph - N/A   Clear
9:30 PM 50.0 °F - 46.4 °F 87% 30.21 in - Variable 2.3 mph - N/A   Clear
10:00 PM 46.4 °F - 44.6 °F 93% 30.21 in - Variable 2.3 mph - N/A   Clear
10:30 PM 46.4 °F 45.2 °F 42.8 °F 87% 30.21 in - Variable 3.5 mph - N/A   Clear
11:00 PM 42.8 °F - 41.0 °F 93% 30.21 in - Variable 2.3 mph - N/A   Clear
11:30 PM 44.6 °F - 41.0 °F 87% 30.21 in - Variable 2.3 mph - N/A   Clear